TimeEST,TemperatureF,Dew PointF,Humidity,Sea Level PressureIn,VisibilityMPH,Wind Direction,Wind SpeedMPH,Gust SpeedMPH,PrecipitationIn,Events,Conditions,WindDirDegrees,DateUTC
12:53 AM,-5.1,-9.0,83,29.81,10.0,West,6.9,-,N/A,,Clear,270,2013-01-04 05:53:00
1:53 AM,-5.1,-9.0,83,29.80,10.0,SW,3.5,-,N/A,,Clear,220,2013-01-04 06:53:00
2:53 AM,-6.0,-9.9,83,29.78,10.0,SSE,3.5,-,N/A,,Mostly Cloudy,160,2013-01-04 07:53:00
3:53 AM,-6.0,-9.0,87,29.76,10.0,SSE,4.6,-,N/A,,Overcast,160,2013-01-04 08:53:00
4:53 AM,-4.0,-9.0,79,29.74,10.0,South,5.8,-,0.00,Snow,Light Snow,170,2013-01-04 09:53:00
5:53 AM,-4.0,-9.0,79,29.72,9.0,SE,6.9,-,0.00,,Overcast,140,2013-01-04 10:53:00
6:18 AM,-4.0,-9.4,78,29.64,10.0,SSE,8.1,-,N/A,,Overcast,150,2013-01-04 11:18:00
6:38 AM,-5.8,-9999,N/A,29.64,1.8,SE,6.9,-,0.00,Snow,Light Snow,140,2013-01-04 11:38:00
6:53 AM,-4.0,-9999,N/A,29.70,1.8,SSE,6.9,-,0.00,Snow,Light Snow,160,2013-01-04 11:53:00
7:05 AM,-2.2,-9999,N/A,29.62,2.5,SSE,9.2,-,0.00,Snow,Light Snow,160,2013-01-04 12:05:00
7:37 AM,-2.2,-9999,N/A,29.61,1.5,SSE,9.2,-,0.00,Snow,Light Snow,150,2013-01-04 12:37:00
7:44 AM,-2.2,-9999,N/A,29.61,2.0,SSE,9.2,-,0.00,Snow,Light Snow,160,2013-01-04 12:44:00
7:53 AM,-2.2,-9999,N/A,29.61,8.0,South,9.2,-,N/A,Snow,Light Snow,170,2013-01-04 12:53:00
8:06 AM,-2.2,-9999,N/A,29.61,1.8,SSE,6.9,-,N/A,Snow,Light Snow,160,2013-01-04 13:06:00
8:11 AM,-2.2,-9999,N/A,29.61,1.5,SSE,6.9,-,0.00,Snow,Light Snow,160,2013-01-04 13:11:00
8:20 AM,-2.2,-9999,N/A,29.60,2.0,SSE,6.9,-,0.00,Snow,Light Snow,160,2013-01-04 13:20:00
8:32 AM,-2.2,-9999,N/A,29.60,4.0,SSE,8.1,-,0.00,Snow,Light Snow,160,2013-01-04 13:32:00
8:53 AM,-0.9,-9999,N/A,29.68,10.0,South,8.1,-,0.00,,Overcast,180,2013-01-04 13:53:00
9:53 AM,1.9,-2.0,83,29.66,2.5,South,6.9,-,0.00,Snow,Light Snow,190,2013-01-04 14:53:00
10:22 AM,3.2,-0.4,85,29.56,1.8,South,6.9,-,0.00,Snow,Light Snow,170,2013-01-04 15:22:00
10:33 AM,3.2,-0.4,85,29.55,2.0,South,6.9,-,0.00,Snow,Light Snow,170,2013-01-04 15:33:00
10:43 AM,3.2,1.4,92,29.55,5.0,South,5.8,-,0.00,Snow,Light Snow,180,2013-01-04 15:43:00
10:53 AM,3.9,1.0,88,29.61,3.0,South,4.6,-,0.00,Snow,Light Snow,180,2013-01-04 15:53:00
11:06 AM,3.2,1.4,92,29.53,2.5,South,5.8,-,0.00,Snow,Light Snow,170,2013-01-04 16:06:00
11:13 AM,6.8,1.4,79,29.52,3.0,South,6.9,-,0.00,Snow,Light Snow,180,2013-01-04 16:13:00
11:23 AM,6.8,3.2,85,29.52,2.0,South,4.6,-,0.00,Snow,Light Snow,170,2013-01-04 16:23:00
11:53 AM,9.0,5.0,84,29.55,2.0,South,5.8,-,0.00,Snow,Light Snow,170,2013-01-04 16:53:00
12:01 PM,8.6,6.8,92,29.48,1.8,SSE,4.6,-,0.00,Snow,Light Snow,160,2013-01-04 17:01:00
12:12 PM,10.4,6.8,85,29.47,1.2,South,6.9,-,0.00,Snow,Light Snow,170,2013-01-04 17:12:00
12:32 PM,10.4,8.6,92,29.46,1.5,South,5.8,-,0.00,Snow,Light Snow,180,2013-01-04 17:32:00
12:53 PM,10.9,8.1,88,29.52,1.0,SE,4.6,-,0.00,Snow,Light Snow,140,2013-01-04 17:53:00
1:03 PM,10.4,8.6,92,29.45,0.8,ESE,4.6,-,0.00,Snow,Light Snow,110,2013-01-04 18:03:00
1:24 PM,12.2,8.6,85,29.44,1.0,SSE,5.8,-,0.00,Snow,Light Snow,150,2013-01-04 18:24:00
1:53 PM,14.0,10.9,88,29.50,1.5,SSE,5.8,-,0.00,Snow,Light Snow,160,2013-01-04 18:53:00
1:58 PM,14.0,10.4,86,29.44,2.0,South,5.8,-,0.00,Snow,Light Snow,170,2013-01-04 18:58:00
2:07 PM,14.0,10.4,86,29.44,1.5,SSE,4.6,-,0.00,Snow,Light Snow,160,2013-01-04 19:07:00
2:16 PM,15.8,12.2,86,29.44,1.0,South,5.8,-,0.00,Snow,Light Snow,180,2013-01-04 19:16:00
2:46 PM,15.8,12.2,86,29.44,1.8,South,6.9,-,0.00,Snow,Light Snow,180,2013-01-04 19:46:00
2:53 PM,17.1,14.0,88,29.50,1.5,South,6.9,-,0.00,Snow,Light Snow,170,2013-01-04 19:53:00
3:06 PM,17.6,14.0,86,29.44,2.0,South,5.8,-,0.00,Snow,Light Snow,180,2013-01-04 20:06:00
3:17 PM,17.6,14.0,86,29.44,4.0,South,6.9,-,0.00,Snow,Light Snow,180,2013-01-04 20:17:00
3:41 PM,17.6,15.8,93,29.44,2.0,South,4.6,-,0.00,Snow,Light Snow,180,2013-01-04 20:41:00
3:45 PM,17.6,15.8,93,29.44,1.5,SSE,5.8,-,0.00,Snow,Light Snow,160,2013-01-04 20:45:00
3:53 PM,18.0,15.1,88,29.50,1.5,SSE,5.8,-,0.00,Snow,Light Snow,160,2013-01-04 20:53:00
4:00 PM,17.6,15.8,93,29.44,1.8,South,4.6,-,0.00,Snow,Light Snow,170,2013-01-04 21:00:00
4:08 PM,17.6,15.8,93,29.45,2.5,South,5.8,-,0.00,Snow,Light Snow,170,2013-01-04 21:08:00
4:15 PM,17.6,15.8,93,29.45,4.0,South,4.6,-,0.00,Snow,Light Snow,170,2013-01-04 21:15:00
4:53 PM,19.0,16.0,88,29.52,10.0,SSW,4.6,-,0.00,,Overcast,200,2013-01-04 21:53:00
5:10 PM,19.4,17.6,93,29.46,10.0,SSW,6.9,-,N/A,,Overcast,210,2013-01-04 22:10:00
5:53 PM,19.0,16.0,88,29.53,10.0,WSW,5.8,-,N/A,,Overcast,240,2013-01-04 22:53:00
6:53 PM,19.0,16.0,88,29.53,10.0,West,6.9,-,N/A,,Overcast,280,2013-01-04 23:53:00
7:53 PM,19.9,15.1,81,29.54,10.0,West,10.4,-,N/A,,Overcast,280,2013-01-05 00:53:00
8:53 PM,19.0,15.1,85,29.53,10.0,WSW,5.8,-,N/A,,Overcast,250,2013-01-05 01:53:00
9:53 PM,18.0,12.9,81,29.55,10.0,West,6.9,-,N/A,,Partly Cloudy,260,2013-01-05 02:53:00
10:53 PM,19.0,14.0,81,29.55,10.0,WSW,9.2,-,N/A,,Mostly Cloudy,250,2013-01-05 03:53:00
11:53 PM,18.0,12.9,81,29.54,10.0,WSW,5.8,-,N/A,,Overcast,240,2013-01-05 04:53:00